www.pogodaiklimat.ru

Погода и климат >> Архив погоды >> Россия >> Хабаровский край >> Бурукан


ПОГОДА в Бурукане

  • Прогноз погоды в Бурукане
  • Монитор погоды в Бурукане

АРХИВ ПОГОДЫ в Бурукане

Время (UTC), дата Ветер
(напр.,м/с)
 
Видим.   Явления Облачность Т
(С)
Тd
(С)
f
(%)
Тe
(С)
Тes
(С)
Комфортность P
(гПа)
Po
(гПа)
Тmin
(С)
Tmax
(С)
R
(мм)
R24
(мм)
S
(см)
12 9.07 СВ 1 50 км 10/10 600 м
[Sc]
+12.4 +8.9 79 +12 +12 1016.1 997.8
15 9.07 СЗ 1 50 км 10/10 600 м
[Sc]
+11.3 +9.1 86 +11 +11 1015.5 997.1
18 9.07 Ю 1 50 км 10/10 600 м
[Sc]
+10.7 +8.9 89 +10 +10 1014.9 996.4
21 9.07 штиль 0 50 км 10/10 600 м
[Sc]
+11.0 +9.5 90 +10 +10 1015.4 997.0 +10.5
00 10.07 Ю 1 50 км 10/10 600 м
[Sc]
+12.7 +9.9 83 +13 +13 1015.4 997.1
03 10.07 СЗ 1 50 км 10/10 600 м
[Sc]
+16.5 +11.6 73 +17 +17 1014.0 995.9
06 10.07 В 2 50 км 9/9 600 м
[Cb cap Ac trans Ci fib]
+17.8 +12.9 73 +18 +19 1012.8 994.9
09 10.07 СЗ 1 50 км {ливн. осадки} 9/3 600 м
[Cb cap Ac trans Ci fib]
+19.0 +15.0 78 +21 +22 комфорт 1011.8 994.0 +19.1 1
12 10.07 штиль 0 50 км {ливн. осадки} 10/8 600 м
[Cb cap Ac trans Ci fib]
+16.0 +14.5 91 +16 +16 1011.7 993.7
15 10.07 штиль 0 50 км 8/6 600 м
[Cb cap Ac trans]
+13.3 +12.1 92 +13 +13 1011.5 993.3
18 10.07 З 1 50 км {ливн. осадки} 10/10 600 м
[Cb cap]
+14.0 +12.8 92 +14 +14 1011.0 992.9
21 10.07 ЮВ 1 20 км 10/10 600 м
[St]
+14.2 +13.0 92 +14 +14 1010.9 992.8 +13.1 0.3
00 11.07 СЗ 1 50 км в посл. час ливневой дождь 10/10 600 м
[Cb cap]
+14.8 +13.6 93 +15 +15 1010.8 992.8
03 11.07 СЗ 1 50 км в посл. час ливневой дождь 10/10 600 м
[Cb cap]
+16.7 +14.1 85 +18 +18 1010.2 992.3
06 11.07 В 3 50 км {ливн. осадки} 10/0
[Ci sp]
+20.0 +15.1 73 +23 +30 комфорт 1008.9 991.2
09 11.07 ЮВ 3 50 км 9/6 600 м
[Sc Ac As Ci fib]
+18.0 +13.8 76 +18 +19 1008.9 991.0 +20.5 1
12 11.07 СВ 2 50 км 4/3 600 м
[Cb cap Ac trans Ci fib]
+15.4 +12.7 84 +15 +15 1010.0 992.0
15 11.07 СВ 1 50 км 10/8 600 м
[Cb cap Ac As]
+14.0 +11.5 85 +14 +14 1010.4 992.3
18 11.07 СВ 1 50 км 10/10 600 м
[Sc]
+13.0 +11.0 88 +13 +13 1010.4 992.2
21 11.07 С 2 20 км 10/3 600 м
[St As trans]
+13.4 +11.1 86 +13 +13 1010.7 992.5 +13.0
00 12.07 СВ 2 50 км 10/10 600 м
[Cb cap]
+14.6 +11.8 83 +14 +14 1010.7 992.6
03 12.07 ЮВ 2 10 км слаб. ливневой дождь 10/10 600 м
[Cb cap]
+15.4 +12.8 84 +15 +15 1010.4 992.4
06 12.07 С 2 50 км {ливн. осадки} 10/8 600 м
[Cb cap Ac As]
+16.9 +12.9 77 +17 +18 1009.2 991.3
09 12.07 В 3 50 км 10/3 600 м
[Sc Ac trans Ci fib]
+18.5 +13.2 71 +19 +20 1009.0 991.2 +19.0 0.0
12 12.07 С 2 20 км 10/10 600 м
[St]
+14.9 +12.1 83 +15 +15 1010.8 992.7
15 12.07 С 2 50 км 10/10 600 м
[Sc]
+14.3 +12.0 86 +14 +14 1010.7 992.6
18 12.07 В 1 50 км 10/10 600 м
[Sc]
+13.9 +11.8 87 +14 +14 1010.6 992.5
21 12.07 В 1 50 км 10/10 600 м
[Sc]
+14.1 +12.0 87 +14 +14 1011.2 993.1 +13.6
00 13.07 СЗ 1 50 км 10/10 600 м
[Sc]
+15.7 +12.4 81 +16 +16 1011.7 993.7
03 13.07 СЗ 2 50 км 10/10 600 м
[Sc]
+18.7 +13.8 73 +20 +20 1011.0 993.2
06 13.07 С 2 50 км 10/9 600 м
[Cb cap Ac trans]
+21.5 +15.1 67 +25 +25 комфорт 1009.5 991.9
09 13.07 Ю 2 50 км 10/8 600 м
[Cb cap Ac trans Ci fib]
+20.9 +15.2 70 +25 +25 комфорт 1009.0 991.4 +22.7
12 13.07 СЗ 1 50 км 10/10 600 м
[Cb cap]
+17.6 +14.6 83 +19 +19 1010.6 992.7
15 13.07 В 1 50 км 10/8 600 м
[Cb cap Ac trans]
+15.5 +12.9 84 +16 +16 1010.9 992.9
18 13.07 С 1 50 км {ливн. осадки} 10/10 600 м
[Cb cap]
+13.8 +12.2 90 +14 +14 1011.2 993.1
21 13.07 С 1 20 км 10/10 600 м
[Cb cap]
+14.3 +12.5 89 +15 +15 1011.8 993.7 +13.7 0.5
00 14.07 Ю 1 20 км 10/10 600 м
[St]
+16.2 +13.5 84 +17 +17 1011.5 993.5
03 14.07 З 1 50 км 8/3 600 м
[Sc diur, vesp Ci fib]
+22.5 +15.0 63 +26 +38 жарко 1010.2 992.6
06 14.07 В 1 50 км 4/3 600 м
[Cu med, cong Ci fib]
+25.2 +14.6 52 +28 +36 жарко 1008.9 991.5
09 14.07 Ю 2 50 км 3/3 600 м
[Cu Sc Ac trans]
+24.1 +14.7 56 +27 +28 жарко 1008.5 991.1 +26.5
12 14.07 С 1 50 км 6/5 600 м
[Sc Ac trans]
+18.2 +12.9 71 +20 +20 1010.7 992.9
15 14.07 С 1 50 км 9/6 600 м
[Cb cap Ac trans]
+14.3 +11.8 85 +15 +15 1011.5 993.4
18 14.07 штиль 0 н/о н/о +11.8 +10.4 91 +11 +11 1012.1 993.8
21 14.07 штиль 0 50 км 10/3 600 м
[Sc Ac trans Ci sp]
+13.6 +11.2 85 +13 +14 1012.1 993.9 +11.5
00 15.07 ЮЗ 1 50 км 4/0
[Ac trans Ci fib]
+20.8 +13.1 61 +24 +35 комфорт 1011.3 993.6
03 15.07 ЮЗ 3 50 км 4/3 600 м
[Cu hum Ci fib]
+26.3 +15.5 51 +29 +38 жарко 1009.6 992.3
06 15.07 З 3 50 км 10/4 600 м
[Cb cap Ac trans Ci fib]
+27.2 +15.2 48 +30 +33 душно 1009.3 992.0
09 15.07 З 1 50 км 10/4 600 м
[Cb cap Ac cuf Ci fib]
+23.6 +17.1 67 +27 +28 жарко 1009.2 991.8 +28.5
12 15.07 штиль 0 50 км 10/8 600 м
[Cb cap Ac cuf]
+19.4 +17.7 90 +21 +21 комфорт 1010.3 992.6
15 15.07 штиль 0 10 км слаб. ливневой дождь 10/6 600 м
[Cb cap Ac cuf Ci fib]
+17.5 +16.1 91 +17 +17 1010.3 992.4
18 15.07 штиль 0 50 км {ливн. осадки} 10/10 600 м
[Cb cap]
+16.7 +15.5 93 +17 +17 1010.2 992.3
21 15.07 штиль 0 500 м туман ?/? +18.2 +17.0 93 +19 +19 1010.5 992.6 +16.0 0.3
00 16.07 З 2 50 км {туман} 8/3 600 м
[Sc Ac trans Ci fib]
+23.4 +17.6 70 +29 +34 душно 1009.8 992.3
03 16.07 ЮЗ 2 50 км 6/1 600 м
[Cu Sc Ac trans Cc]
+27.5 +18.3 57 +32 +43 очень
душно
1008.2 991.0
06 16.07 З 2 50 км в посл. час гроза 9/8 600 м
[Cb cap Ac trans Ci fib]
+26.3 +17.4 58 +30 +32 душно 1007.1 989.8
09 16.07 З 1 50 км 8/3 600 м
[Cb cap Ac trans Ci fib]
+25.7 +18.1 63 +30 +31 душно 1006.4 989.1 +29.3

 

Местоположение метеостанции Бурукан (Хабаровский край, Россия): широта 53.05 долгота 136.00 высота над уровнем моря 153 м.

В архиве по умолчанию представлена погода в Бурукане за последнюю неделю. Архивные данные за месяц целиком и за предыдущие месяцы, начиная с января 2011 года, Вы можете получить, выбрав интересующий диапазон дат из раскрывающегося списка и нажав кнопку "Ввод!".


*Определитесь, кто Вы:
робот инопланетянин человек

Внимание! Время в таблицах - всемирное. Для получения местного времени необходимо прибавить поправку, которая равна 10 ч.

Смотрите также архив погоды в соседних городах и на ближайших метеорологических станциях:

Погода в Им. Полины Осипенко (Хабаровский край, Россия) (78 км)
Погода в Веселой Горке (Хабаровский край, Россия) (85 км)
Погода в Софийском Прииске (Хабаровский край, Россия) (166 км)
Погода в Удинске (Хабаровский край, Россия) (188 км)
Погода в Чумикане (Хабаровский край, Россия) (191 км)
Погода в Удском (Хабаровский край, Россия) (193 км)
Погода в Хуларине (Хабаровский край, Россия) (194 км)
Погода в Экимчане (Амурская область, Россия) (207 км)
Погода в Горине (Хабаровский край, Россия) (213 км)
Погода в Большом Шантаре (Хабаровский край, Россия) (221 км)

Пояснения к столбцам:

Ветер - указаны скорость ветра в м/с - средняя за 10 мин, порывы в срок и между сроками (в фигурных скобках) и направление, откуда дует ветер: С - северный, СВ - северо-восточный, В - восточный, ЮВ - юго-восточный, Ю - южный, ЮЗ - юго-западный, З - западный, СЗ - северо-западный.
Видимость - горизонтальная дальность видимости в метрах или километрах. При видимости от 1 до 10 км при отсутствии осадков обычно наблюдается дымка, при ухудшении видимости до 1 км и менее - туман. В сухую погоду видимость может ухудшаться дымом, пылью или мглою.
Явления - указаны атмосферные явления, наблюдавшиеся в срок или в последний час перед сроком; фигурными скобками обозначены явления, наблюдавшиеся между сроками (за 1-3 часа до срока); квадратными скобками обозначены град или гололедные отложения с указанием их диаметра в мм.
Облачность - указаны через наклонную черту общая и нижняя облачность в баллах и высота нижней границы облаков в метрах; квадратными скобками обозначены формы облаков: Ci - перистые, Cs - перисто-слоистые, Cc - перисто-кучевые, Ac - высококучевые, As - высокослоистые, Sc - слоисто-кучевые, Ns - слоисто-дождевые, Cu - кучевые, Cb - кучево-дождевые. Подробнее классификацию облаков см. в Атласе облаков (PDF).
T - Температура воздуха - температура, измеренная на высоте 2 м над землей.
Td - Температура точки росы - температура, при понижении до которой содержащийся в воздухе водяной пар достигнет насыщения.
f - Относительная влажность воздуха - влажноcть воздуха, измеренная на высоте 2 м над землей.
Te - Эффективная температура - температура, которую ощущает одетый по сезону человек в тени. Характеристика душности погоды. При расчете учитывается влияние влажности воздуха и скорости ветра на теплоощущения человека.
Tes - Эффективная температура на солнце - температура, которую ощущает человек, с поправкой на солнечный нагрев. Характеристика знойности погоды. Зависит от высоты солнца над горизонтом, облачности и скорости ветра. Ночью, в пасмурную погоду, а также при ветре 12 м/с и более поправка равна нулю.
P - Атмосферное давление - приведенное к уровню моря атмосферное давление.
Po - Атмосферное давление - измеренное на уровне метеостанции атмосферное давление.
Tmin - Минимальная температура - минимум температуры воздуха на высоте 2 м над землей.
Tmax - Максимальная температура - максимум температуры воздуха на высоте 2 м над землей.
R - Количество осадков - Количество выпавших осадков за период времени, мм. При наведении курсора мыши на число - период времени, за который выпало указанное количество осадков.
R24 - Количество осадков - Количество выпавших осадков за 24 часа, мм.
S - Снежный покров - Высота снежного покрова, см. При наведении курсора мыши на число - состояние снежного покрова и степень покрытия местности в баллах.